Time[GMT],salinity[psu](20m),sigma_t[kg/m^3](20m),conductivity[msiemens/cm](20m),temperature[C](20m)
2020-11-08 00:00,32.640,24.777,37.481,11.89
2020-11-08 01:00,32.581,24.731,37.423,11.90
2020-11-08 02:00,32.397,24.615,37.104,11.75
2020-11-08 03:00,32.445,24.657,37.126,11.72
2020-11-08 04:00,32.358,24.576,37.099,11.79
2020-11-08 05:00,32.354,24.565,37.135,11.84
2020-11-08 06:00,32.358,24.567,37.148,11.85
2020-11-08 07:00,32.379,24.569,37.237,11.92
2020-11-08 08:00,32.727,24.698,38.272,12.67
2020-11-08 09:00,33.103,24.847,39.332,13.39
2020-11-08 10:00,33.080,24.841,39.251,13.33
2020-11-08 11:00,32.986,24.814,38.943,13.10
2020-11-08 12:00,32.709,24.736,38.010,12.40
2020-11-08 13:00,32.438,24.613,37.306,11.93
2020-11-08 14:00,32.453,24.657,37.162,11.75
2020-11-08 15:00,32.383,24.608,37.068,11.73
2020-11-08 16:00,32.325,24.562,37.014,11.74
2020-11-08 17:00,32.303,24.607,36.681,11.39
2020-11-08 18:00,32.394,24.647,36.927,11.56
2020-11-08 19:00,32.829,24.779,38.371,12.66
2020-11-08 20:00,33.122,24.884,39.251,13.28
2020-11-08 21:00,33.111,24.862,39.301,13.34
2020-11-08 22:00,33.054,24.837,39.152,13.25
2020-11-08 23:00,32.979,24.798,38.984,13.15
2020-11-09 00:00,32.689,24.684,38.163,12.59
2020-11-09 01:00,32.397,24.600,37.174,11.83
2020-11-09 02:00,32.321,24.622,36.693,11.38
2020-11-09 03:00,32.307,24.610,36.686,11.39
2020-11-09 04:00,32.329,24.624,36.727,11.41
2020-11-09 05:00,32.355,24.650,36.721,11.37
2020-11-09 06:00,32.432,24.718,36.761,11.33
2020-11-09 07:00,32.462,24.737,36.812,11.35
2020-11-09 08:00,32.808,24.771,38.313,12.62
2020-11-09 09:00,33.185,24.898,39.478,13.45
2020-11-09 10:00,33.174,24.908,39.382,13.36
2020-11-09 11:00,33.181,24.910,39.400,13.37
2020-11-09 12:00,32.732,24.755,38.023,12.39
2020-11-09 13:00,32.304,24.599,36.726,11.44
2020-11-09 14:00,32.347,24.639,36.739,11.40
2020-11-09 15:00,32.318,24.566,36.958,11.68
2020-11-09 16:00,32.289,24.558,36.853,11.60
2020-11-09 17:00,32.343,24.614,36.844,11.52
2020-11-09 18:00,32.409,24.675,36.863,11.47
2020-11-09 19:00,32.479,24.736,36.903,11.44
2020-11-09 20:00,32.870,24.799,38.473,12.72
2020-11-09 21:00,33.216,24.908,39.574,13.52
2020-11-09 22:00,33.356,24.956,40.004,13.82
2020-11-09 23:00,33.429,24.981,40.221,13.97
2020-11-10 00:00,33.251,24.931,39.630,13.54
2020-11-10 01:00,32.590,24.772,37.264,11.71
2020-11-10 02:00,32.448,24.699,36.935,11.51
2020-11-10 03:00,32.399,24.645,36.962,11.59
2020-11-10 04:00,32.306,24.557,36.946,11.68
2020-11-10 05:00,32.290,24.524,37.030,11.79
2020-11-10 06:00,32.271,24.488,37.110,11.91
2020-11-10 07:00,32.314,24.567,36.935,11.66
2020-11-10 08:00,32.888,24.843,38.342,12.56
2020-11-10 09:00,33.198,24.919,39.438,13.39
2020-11-10 10:00,33.402,24.929,40.332,14.11
2020-11-10 11:00,33.418,24.961,40.262,14.02
2020-11-10 12:00,33.317,24.932,39.931,13.78
2020-11-10 13:00,33.181,24.925,39.332,13.30
2020-11-10 14:00,32.548,24.698,37.425,11.94
2020-11-10 15:00,32.430,24.665,37.015,11.62
2020-11-10 16:00,32.374,24.626,36.933,11.59
2020-11-10 17:00,32.373,24.623,36.940,11.60
2020-11-10 18:00,32.430,24.669,36.997,11.60
2020-11-10 19:00,32.584,24.772,37.232,11.68
2020-11-10 20:00,33.500,24.985,40.527,14.21
2020-11-10 21:00,33.312,24.918,39.972,13.83
2020-11-10 22:00,33.416,24.956,40.275,14.04
2020-11-10 23:00,33.460,24.975,40.389,14.11
2020-11-11 00:00,33.604,25.060,40.667,14.24
2020-11-11 01:00,33.538,25.012,40.577,14.22
2020-11-11 02:00,33.340,24.951,39.949,13.78
2020-11-11 03:00,32.440,24.624,37.265,11.88
2020-11-11 04:00,32.413,24.628,37.116,11.75
2020-11-11 05:00,32.391,24.605,37.121,11.78
2020-11-11 06:00,32.513,24.725,37.119,11.64
2020-11-11 07:00,32.602,24.777,37.298,11.74
2020-11-11 08:00,33.014,24.858,38.869,12.99
2020-11-11 09:00,33.574,25.017,40.720,14.33
2020-11-11 10:00,33.477,24.994,40.383,14.08
2020-11-11 11:00,33.439,24.987,40.239,13.97
2020-11-11 12:00,33.394,24.969,40.114,13.89
2020-11-11 13:00,33.449,25.001,40.226,13.95
2020-11-11 14:00,33.385,24.994,39.958,13.73
2020-11-11 15:00,33.343,24.937,40.028,13.86
2020-11-11 16:00,32.612,24.730,37.570,12.02
2020-11-11 17:00,32.509,24.718,37.134,11.66
2020-11-11 18:00,32.498,24.683,37.257,11.81
2020-11-11 19:00,32.576,24.747,37.319,11.79
2020-11-11 20:00,32.947,24.823,38.722,12.90
2020-11-11 21:00,33.334,24.938,39.981,13.82
2020-11-11 22:00,33.275,24.940,39.701,13.59
2020-11-11 23:00,33.272,24.958,39.602,13.48
2020-11-12 00:00,33.215,24.988,39.201,13.12
2020-11-12 01:00,33.151,24.952,39.070,13.05
2020-11-12 02:00,33.227,24.936,39.496,13.42
2020-11-12 03:00,33.452,25.011,40.190,13.91
2020-11-12 04:00,33.080,24.827,39.318,13.40
2020-11-12 05:00,33.370,24.958,40.058,13.86
2020-11-12 06:00,33.254,24.895,39.806,13.72
2020-11-12 07:00,33.256,24.901,39.791,13.70
2020-11-12 08:00,32.750,24.686,38.439,12.82
2020-11-12 09:00,32.918,24.765,38.855,13.08
2020-11-12 10:00,33.035,24.833,39.083,13.20
2020-11-12 11:00,32.924,24.797,38.731,12.94
2020-11-12 12:00,32.853,24.752,38.609,12.89
2020-11-12 13:00,33.057,24.899,38.874,12.94
2020-11-12 14:00,33.013,24.816,39.059,13.19
2020-11-12 15:00,33.145,24.953,39.035,13.02
2020-11-12 16:00,33.303,24.943,39.816,13.68
2020-11-12 17:00,32.764,24.678,38.542,12.92
2020-11-12 18:00,33.209,24.898,39.591,13.54
2020-11-12 19:00,33.273,24.926,39.758,13.65
2020-11-12 20:00,33.173,24.878,39.516,13.50
2020-11-12 21:00,32.790,24.685,38.627,12.98
2020-11-12 22:00,33.049,24.847,39.086,13.18
2020-11-12 23:00,32.769,24.699,38.464,12.83
2020-11-13 00:00,33.500,24.964,40.622,14.31
2020-11-13 01:00,33.445,24.951,40.428,14.17
2020-11-13 02:00,32.929,24.749,38.979,13.20
2020-11-13 03:00,33.339,24.908,40.139,13.98
2020-11-13 04:00,32.878,24.777,38.609,12.86
2020-11-13 05:00,32.864,24.717,38.825,13.11
2020-11-13 06:00,32.823,24.701,38.710,13.03
2020-11-13 07:00,32.874,24.724,38.838,13.11
2020-11-13 08:00,32.911,24.742,38.926,13.17
2020-11-13 09:00,32.877,24.731,38.821,13.09
2020-11-13 10:00,32.948,24.755,39.040,13.25
2020-11-13 11:00,32.943,24.750,39.036,13.25
2020-11-13 12:00,33.026,24.792,39.231,13.37
2020-11-13 13:00,33.053,24.808,39.282,13.39
2020-11-13 14:00,33.092,24.816,39.425,13.50
2020-11-13 15:00,33.310,24.931,39.903,13.76
2020-11-13 16:00,33.393,24.971,40.100,13.88
2020-11-13 17:00,32.901,24.745,38.867,13.12
2020-11-13 18:00,32.591,24.613,38.036,12.56
2020-11-13 19:00,32.614,24.665,37.898,12.38
2020-11-13 20:00,32.884,24.722,38.898,13.17
2020-11-13 21:00,32.656,24.661,38.115,12.57
2020-11-13 22:00,32.901,24.740,38.890,13.14
2020-11-13 23:00,33.168,24.855,39.596,13.60
2020-11-14 00:00,33.233,24.860,39.869,13.81
2020-11-14 01:00,33.288,24.879,40.037,13.93
2020-11-14 02:00,33.307,24.888,40.082,13.96
2020-11-14 03:00,33.624,24.984,41.092,14.66
2020-11-14 04:00,33.982,25.071,42.316,15.53
2020-11-14 05:00,33.121,24.849,39.408,13.45
2020-11-14 06:00,32.848,24.722,38.727,13.02
2020-11-14 07:00,32.537,24.611,37.788,12.35
2020-11-14 08:00,32.496,24.594,37.678,12.28
2020-11-14 09:00,32.673,24.655,38.222,12.67
2020-11-14 10:00,32.923,24.795,38.736,12.95
2020-11-14 11:00,32.967,24.772,39.049,13.24
2020-11-14 12:00,33.255,24.875,39.903,13.83
2020-11-14 13:00,33.054,24.838,39.146,13.24
2020-11-14 14:00,33.012,24.797,39.145,13.29
2020-11-14 15:00,32.924,24.754,38.932,13.16
2020-11-14 16:00,33.232,24.998,39.232,13.13
2020-11-14 17:00,33.274,24.978,39.521,13.39
2020-11-14 18:00,33.132,24.854,39.433,13.46
2020-11-14 19:00,32.988,24.803,39.003,13.16
2020-11-14 20:00,32.928,24.805,38.710,12.91
2020-11-14 21:00,32.961,24.826,38.767,12.94
2020-11-14 22:00,33.067,24.858,39.116,13.19
2020-11-14 23:00,33.277,24.909,39.853,13.75
2020-11-15 00:00,32.822,24.677,38.818,13.15
2020-11-15 01:00,32.078,24.447,36.381,11.31
2020-11-15 02:00,32.479,24.666,37.249,11.82
2020-11-15 03:00,32.403,24.642,36.999,11.63
2020-11-15 04:00,33.087,24.845,39.270,13.34
2020-11-15 05:00,33.084,24.918,38.916,12.96
2020-11-15 06:00,33.055,24.890,38.910,12.98
2020-11-15 07:00,32.983,24.815,38.925,13.08
2020-11-15 08:00,32.980,24.811,38.926,13.09
2020-11-15 09:00,33.057,24.857,39.071,13.16
2020-11-15 10:00,33.120,24.881,39.259,13.29
2020-11-15 11:00,32.849,24.752,38.590,12.87
2020-11-15 12:00,32.951,24.844,38.642,12.81
2020-11-15 13:00,32.001,24.418,36.151,11.14
2020-11-15 14:00,32.038,24.451,36.166,11.11
2020-11-15 15:00,31.976,24.401,36.112,11.12
2020-11-15 16:00,32.407,24.806,36.193,10.72
2020-11-15 17:00,33.186,25.251,37.799,11.63
2020-11-15 18:00,32.757,24.798,37.936,12.26
2020-11-15 19:00,32.284,24.520,37.019,11.79
2020-11-15 20:00,32.963,24.850,38.665,12.82
2020-11-15 21:00,32.946,24.825,38.704,12.89
2020-11-15 22:00,32.914,24.831,38.528,12.73
2020-11-15 23:00,32.934,24.822,38.662,12.85
2020-11-16 00:00,32.515,24.658,37.459,12.01
2020-11-16 01:00,31.998,24.420,36.119,11.11
2020-11-16 02:00,31.917,24.328,36.189,11.28
2020-11-16 03:00,32.182,24.535,36.450,11.27
2020-11-16 04:00,33.195,25.029,38.916,12.83
2020-11-16 05:00,33.728,25.116,40.979,14.43
2020-11-16 06:00,33.347,24.940,40.032,13.86
2020-11-16 07:00,32.394,24.523,37.530,12.23
2020-11-16 08:00,32.705,24.684,38.238,12.65
2020-11-16 09:00,32.660,24.726,37.821,12.25
2020-11-16 10:00,32.759,24.775,38.063,12.40
2020-11-16 11:00,32.729,24.757,38.004,12.37
2020-11-16 12:00,32.681,24.726,37.922,12.33
2020-11-16 13:00,32.358,24.578,37.090,11.78
2020-11-16 14:00,32.292,24.504,37.135,11.91
2020-11-16 15:00,32.466,24.557,37.711,12.35
2020-11-16 16:00,32.652,24.635,38.219,12.69
2020-11-16 17:00,32.771,24.671,38.605,12.98
2020-11-16 18:00,33.290,24.960,39.679,13.55
2020-11-16 19:00,33.955,25.145,41.872,15.10
2020-11-16 20:00,32.620,24.624,38.118,12.62
2020-11-16 21:00,32.388,24.549,37.375,12.07
2020-11-16 22:00,32.293,24.517,37.079,11.85
2020-11-16 23:00,32.297,24.525,37.054,11.81
2020-11-17 00:00,32.443,24.558,37.599,12.25
2020-11-17 01:00,32.364,24.528,37.364,12.08
2020-11-17 02:00,33.678,25.037,41.102,14.61
2020-11-17 03:00,32.407,24.561,37.406,12.08
2020-11-17 04:00,32.184,24.542,36.421,11.23
2020-11-17 05:00,32.163,24.523,36.419,11.25
2020-11-17 06:00,32.166,24.527,36.411,11.24
2020-11-17 07:00,32.151,24.514,36.404,11.25
2020-11-17 08:00,32.105,24.478,36.355,11.25
2020-11-17 09:00,32.435,24.639,37.167,11.78
2020-11-17 10:00,32.766,24.728,38.316,12.67
2020-11-17 11:00,32.763,24.731,38.291,12.64
2020-11-17 12:00,32.894,24.760,38.766,13.01
2020-11-17 13:00,32.175,24.524,36.471,11.30
2020-11-17 14:00,32.139,24.533,36.245,11.09
2020-11-17 15:00,32.128,24.529,36.211,11.06
2020-11-17 16:00,32.087,24.510,36.107,10.99
2020-11-17 17:00,32.073,24.490,36.138,11.04
2020-11-17 18:00,32.047,24.475,36.084,11.01
2020-11-17 19:00,32.090,24.510,36.125,11.01
2020-11-17 20:00,32.124,24.533,36.172,11.02
2020-11-17 21:00,32.095,24.522,36.086,10.96
2020-11-17 22:00,31.984,24.441,35.950,10.93
2020-11-17 23:00,31.978,24.435,35.951,10.94
2020-11-18 00:00,32.126,24.566,36.018,10.84
2020-11-18 01:00,32.107,24.529,36.108,10.97
2020-11-18 02:00,32.069,24.499,36.073,10.97
2020-11-18 03:00,32.123,24.535,36.158,11.01
2020-11-18 04:00,32.221,24.612,36.257,11.01
2020-11-18 05:00,32.241,24.626,36.286,11.02
2020-11-18 06:00,32.268,24.650,36.295,11.00
2020-11-18 07:00,32.402,24.761,36.395,10.96
2020-11-18 08:00,32.392,24.745,36.428,11.00
2020-11-18 09:00,32.347,24.717,36.344,10.96
2020-11-18 10:00,32.222,24.621,36.214,10.96
2020-11-18 11:00,32.203,24.612,36.166,10.92
2020-11-18 12:00,32.225,24.631,36.176,10.91
2020-11-18 13:00,32.253,24.658,36.180,10.88
2020-11-18 14:00,32.237,24.637,36.205,10.93
2020-11-18 15:00,32.040,24.473,36.064,10.99
2020-11-18 16:00,32.027,24.441,36.163,11.12
2020-11-18 17:00,32.153,24.535,36.307,11.14
2020-11-18 18:00,31.989,24.365,36.354,11.38
2020-11-18 19:00,31.832,24.280,36.008,11.17
2020-11-18 20:00,31.812,24.267,35.974,11.16
2020-11-18 21:00,31.795,24.250,35.973,11.17
2020-11-18 22:00,31.828,24.291,35.933,11.09
2020-11-18 23:00,32.009,24.443,36.060,11.03
2020-11-19 00:00,32.169,24.578,36.167,10.96
2020-11-19 01:00,32.209,24.613,36.193,10.95
2020-11-19 02:00,32.129,24.566,36.029,10.85
2020-11-19 03:00,32.177,24.605,36.073,10.85
2020-11-19 04:00,32.072,24.483,36.174,11.08
2020-11-19 05:00,32.111,24.570,35.923,10.75
2020-11-19 06:00,32.213,24.642,36.063,10.80
2020-11-19 07:00,32.348,24.631,36.783,11.45
2020-11-19 08:00,32.234,24.627,36.246,10.98
2020-11-19 09:00,32.212,24.603,36.257,11.02
2020-11-19 10:00,32.103,24.546,36.009,10.86
2020-11-19 11:00,32.017,24.451,36.060,11.02
2020-11-19 12:00,32.736,24.702,38.295,12.68
2020-11-19 13:00,32.760,24.803,37.929,12.25
2020-11-19 14:00,32.404,24.752,36.450,11.01
2020-11-19 15:00,32.015,24.485,35.881,10.82
2020-11-19 16:00,32.269,24.674,36.182,10.87
2020-11-19 17:00,32.265,24.704,36.005,10.67
2020-11-19 18:00,32.312,24.747,36.020,10.64
2020-11-19 19:00,32.322,24.746,36.073,10.68
2020-11-19 20:00,32.300,24.728,36.054,10.69
2020-11-19 21:00,32.297,24.734,36.008,10.64
2020-11-19 22:00,32.266,24.703,36.017,10.68
2020-11-19 23:00,32.377,24.729,36.436,11.03
2020-11-20 00:00,32.248,24.667,36.113,10.81
2020-11-20 01:00,32.147,24.597,35.966,10.76
2020-11-20 02:00,32.402,24.729,36.556,11.14
2020-11-20 03:00,32.241,24.665,36.084,10.79
2020-11-20 04:00,32.372,24.721,36.447,11.05
2020-11-20 05:00,32.283,24.723,36.000,10.65
2020-11-20 06:00,32.367,24.754,36.258,10.84
2020-11-20 07:00,32.443,24.767,36.570,11.10
2020-11-20 08:00,32.550,24.829,36.783,11.22
2020-11-20 09:00,32.637,24.907,36.819,11.16
2020-11-20 10:00,32.475,24.777,36.676,11.19
2020-11-20 11:00,32.372,24.758,36.261,10.84
2020-11-20 12:00,32.360,24.746,36.264,10.86
2020-11-20 13:00,32.297,24.714,36.116,10.76
2020-11-20 14:00,32.267,24.695,36.061,10.73
2020-11-20 15:00,32.278,24.719,35.991,10.64
2020-11-20 16:00,32.448,24.775,36.552,11.08
2020-11-20 17:00,32.455,24.791,36.509,11.02
2020-11-20 18:00,32.461,24.793,36.528,11.04
2020-11-20 19:00,32.461,24.787,36.554,11.07
2020-11-20 20:00,32.815,24.924,37.602,11.83
2020-11-20 21:00,33.109,25.025,38.527,12.51
2020-11-20 22:00,32.659,24.837,37.279,11.65
2020-11-20 23:00,32.697,24.838,37.457,11.80
2020-11-21 00:00,32.688,24.828,37.462,11.82
2020-11-21 01:00,32.661,24.822,37.360,11.74
2020-11-21 02:00,32.594,24.807,37.109,11.53
2020-11-21 03:00,32.572,24.788,37.097,11.55
2020-11-21 04:00,32.635,24.815,37.268,11.66
2020-11-21 05:00,32.695,24.842,37.432,11.78
2020-11-21 06:00,32.761,24.893,37.497,11.77
2020-11-21 07:00,32.756,24.900,37.440,11.72
2020-11-21 08:00,33.416,25.138,39.441,13.15
2020-11-21 09:00,33.022,24.980,38.328,12.39
2020-11-21 10:00,33.110,25.041,38.459,12.43
2020-11-21 11:00,33.351,25.125,39.197,12.96
2020-11-21 12:00,33.138,25.065,38.471,12.41
2020-11-21 13:00,32.930,24.964,37.962,12.09
2020-11-21 14:00,32.999,24.988,38.182,12.26
2020-11-21 15:00,32.764,24.902,37.469,11.74
2020-11-21 16:00,32.687,24.861,37.297,11.64
2020-11-21 17:00,32.814,24.930,37.571,11.80
2020-11-21 18:00,33.092,25.034,38.403,12.39
2020-11-21 19:00,33.275,25.097,38.973,12.80
2020-11-21 20:00,33.041,25.025,38.202,12.23
2020-11-21 21:00,33.154,25.044,38.647,12.59
2020-11-21 22:00,33.165,25.050,38.674,12.60
2020-11-21 23:00,33.138,25.039,38.597,12.55
2020-11-22 00:00,33.154,25.042,38.661,12.60
2020-11-22 01:00,33.279,25.095,38.995,12.82
2020-11-22 02:00,33.399,25.201,39.066,12.76
2020-11-22 03:00,33.373,25.169,39.094,12.82
2020-11-22 04:00,33.351,25.153,39.060,12.81
2020-11-22 05:00,33.211,25.070,38.792,12.68
2020-11-22 06:00,33.130,25.047,38.519,12.48
2020-11-22 07:00,32.986,24.997,38.077,12.16
2020-11-22 08:00,32.853,24.926,37.782,11.98
2020-11-22 09:00,33.015,24.977,38.307,12.37
2020-11-22 10:00,32.967,24.972,38.107,12.21
2020-11-22 11:00,33.062,25.003,38.411,12.43
2020-11-22 12:00,33.112,25.021,38.561,12.54
2020-11-22 13:00,33.203,25.044,38.879,12.78
2020-11-22 14:00,33.245,25.070,38.957,12.82
2020-11-22 15:00,33.237,25.070,38.918,12.79
2020-11-22 16:00,33.210,25.060,38.840,12.73
2020-11-22 17:00,32.725,24.896,37.308,11.61
2020-11-22 18:00,32.975,24.972,38.144,12.24
2020-11-22 19:00,32.919,24.995,37.760,11.88
2020-11-22 20:00,32.868,24.990,37.537,11.70
2020-11-22 21:00,32.796,24.959,37.339,11.56
2020-11-22 22:00,32.920,24.994,37.773,11.90
2020-11-22 23:00,32.548,24.843,36.707,11.14
2020-11-23 00:00,32.419,24.826,36.148,10.66
2020-11-23 01:00,32.606,24.859,36.909,11.30
2020-11-23 02:00,32.953,24.986,37.973,12.08
2020-11-23 03:00,32.804,24.920,37.569,11.81
2020-11-23 04:00,32.798,24.920,37.547,11.79
2020-11-23 05:00,32.808,24.923,37.576,11.81
2020-11-23 06:00,32.705,24.889,37.244,11.56
2020-11-23 07:00,32.701,24.881,37.265,11.59
2020-11-23 08:00,32.765,24.934,37.312,11.57
2020-11-23 09:00,32.567,24.889,36.567,10.96
2020-11-23 10:00,32.566,24.895,36.530,10.92
2020-11-23 11:00,32.518,24.872,36.410,10.84
2020-11-23 12:00,32.572,24.890,36.585,10.98
2020-11-23 13:00,32.483,24.853,36.330,10.79
2020-11-23 14:00,32.606,24.891,36.746,11.12
2020-11-23 15:00,32.777,24.921,37.440,11.69
2020-11-23 16:00,32.853,24.940,37.710,11.90
2020-11-23 17:00,32.876,24.953,37.760,11.93
2020-11-23 18:00,32.860,24.955,37.672,11.85
2020-11-23 19:00,32.732,24.903,37.307,11.60
2020-11-23 20:00,32.559,24.867,36.635,11.05
2020-11-23 21:00,32.487,24.846,36.385,10.85
2020-11-23 22:00,32.521,24.838,36.597,11.05
2020-11-23 23:00,32.504,24.839,36.505,10.96
2020-11-24 00:00,32.525,24.851,36.553,10.99
2020-11-24 01:00,32.511,24.866,36.403,10.84
2020-11-24 02:00,32.487,24.829,36.473,10.95
2020-11-24 03:00,32.616,24.873,36.888,11.26
2020-11-24 04:00,32.715,24.887,37.301,11.61
2020-11-24 05:00,32.758,24.901,37.441,11.72
2020-11-24 06:00,32.685,24.887,37.160,11.49
2020-11-24 07:00,32.643,24.875,37.010,11.37
2020-11-24 08:00,32.586,24.879,36.707,11.10
2020-11-24 09:00,32.731,24.939,37.122,11.39
2020-11-24 10:00,32.812,24.953,37.447,11.66
2020-11-24 11:00,32.942,24.985,37.922,12.04
2020-11-24 12:00,33.074,25.047,38.254,12.25
2020-11-24 13:00,33.102,25.065,38.298,12.27
2020-11-24 14:00,33.119,25.078,38.318,12.27
2020-11-24 15:00,33.120,25.088,38.273,12.22
2020-11-24 16:00,33.117,25.089,38.258,12.21
2020-11-24 17:00,33.108,25.084,38.235,12.19
2020-11-24 18:00,33.130,25.097,38.283,12.22
2020-11-24 19:00,33.138,25.118,38.217,12.14
2020-11-24 20:00,33.152,25.151,38.128,12.02
2020-11-24 21:00,33.165,25.127,38.303,12.20
2020-11-24 22:00,33.149,25.170,38.017,11.91
2020-11-24 23:00,33.008,25.140,37.477,11.47
2020-11-25 00:00,33.103,25.153,37.876,11.80
2020-11-25 01:00,33.125,25.169,37.902,11.81
2020-11-25 02:00,33.055,25.144,37.686,11.65
2020-11-25 03:00,33.144,25.173,37.979,11.87
2020-11-25 04:00,33.067,25.170,37.616,11.56
2020-11-25 05:00,33.142,25.176,37.950,11.84
2020-11-25 06:00,33.153,25.188,37.950,11.83
2020-11-25 07:00,33.149,25.187,37.934,11.82
2020-11-25 08:00,33.097,25.178,37.724,11.64
2020-11-25 09:00,33.061,25.144,37.714,11.67
2020-11-25 10:00,33.084,25.129,37.903,11.86
2020-11-25 11:00,32.992,25.094,37.627,11.66
2020-11-25 12:00,32.861,25.039,37.259,11.40
2020-11-25 13:00,32.943,25.049,37.615,11.70
2020-11-25 14:00,33.065,25.115,37.876,11.85
2020-11-25 15:00,33.112,25.136,38.005,11.93
2020-11-25 16:00,33.145,25.158,38.052,11.95
2020-11-25 17:00,33.111,25.146,37.948,11.87
2020-11-25 18:00,33.081,25.134,37.866,11.82
2020-11-25 19:00,33.133,25.144,38.062,11.97
2020-11-25 20:00,33.114,25.146,37.961,11.88
2020-11-25 21:00,33.082,25.137,37.851,11.80
2020-11-25 22:00,33.046,25.123,37.746,11.73
2020-11-25 23:00,32.897,25.060,37.334,11.44
2020-11-26 00:00,32.813,25.009,37.174,11.36
2020-11-26 01:00,32.969,25.085,37.562,11.61
2020-11-26 02:00,32.990,25.094,37.621,11.65
2020-11-26 03:00,32.931,25.067,37.465,11.55
2020-11-26 04:00,32.891,25.050,37.350,11.47
2020-11-26 05:00,32.954,25.080,37.511,11.57
2020-11-26 06:00,33.111,25.138,37.988,11.92
2020-11-26 07:00,33.223,25.158,38.430,12.27
2020-11-26 08:00,33.196,25.154,38.317,12.18
2020-11-26 09:00,33.096,25.136,37.925,11.87
2020-11-26 10:00,32.948,25.080,37.483,11.55
2020-11-26 11:00,32.854,25.034,37.252,11.40
2020-11-26 12:00,32.751,24.979,37.020,11.26
2020-11-26 13:00,32.726,24.984,36.874,11.12
2020-11-26 14:00,32.722,25.011,36.712,10.95
2020-11-26 15:00,32.805,25.019,37.085,11.27
2020-11-26 16:00,32.780,24.994,37.089,11.30
2020-11-26 17:00,32.694,24.986,36.702,10.97
2020-11-26 18:00,32.861,25.047,37.221,11.36
2020-11-26 19:00,32.834,25.033,37.159,11.32
2020-11-26 20:00,32.817,25.019,37.143,11.32
2020-11-26 21:00,32.579,24.950,36.314,10.67
2020-11-26 22:00,32.405,24.809,36.167,10.70
2020-11-26 23:00,32.349,24.775,36.058,10.64
2020-11-27 00:00,32.174,24.622,35.970,10.74
2020-11-27 01:00,32.210,24.646,36.028,10.76
2020-11-27 02:00,32.499,24.830,36.529,11.00
2020-11-27 03:00,32.591,24.879,36.733,11.12
2020-11-27 04:00,32.620,24.913,36.704,11.06
2020-11-27 05:00,32.824,25.014,37.204,11.38
2020-11-27 06:00,33.086,25.127,37.926,11.88
2020-11-27 07:00,33.102,25.129,37.990,11.93
2020-11-27 08:00,33.015,25.110,37.663,11.67
2020-11-27 09:00,33.008,25.089,37.730,11.75
2020-11-27 10:00,32.653,24.936,36.753,11.07
2020-11-27 11:00,32.670,24.942,36.811,11.12
2020-11-27 12:00,32.691,24.948,36.881,11.17
2020-11-27 13:00,32.888,25.066,37.258,11.37
2020-11-27 14:00,32.758,24.997,36.964,11.19
2020-11-27 15:00,32.958,25.148,37.190,11.21
2020-11-27 16:00,32.886,25.089,37.133,11.23
2020-11-27 17:00,32.936,25.099,37.331,11.39
2020-11-27 18:00,32.911,25.069,37.356,11.45
2020-11-27 19:00,32.914,25.080,37.314,11.40
2020-11-27 20:00,33.040,25.121,37.726,11.71
2020-11-27 21:00,32.896,25.090,37.176,11.27
2020-11-27 22:00,32.718,24.970,36.903,11.17
2020-11-27 23:00,32.810,25.043,36.987,11.16
2020-11-28 00:00,32.684,24.962,36.777,11.06
2020-11-28 01:00,32.862,25.092,37.002,11.11
2020-11-28 02:00,32.812,25.035,37.040,11.21
2020-11-28 03:00,32.927,25.128,37.138,11.19
2020-11-28 04:00,32.940,25.133,37.179,11.22
2020-11-28 05:00,32.943,25.140,37.155,11.19
2020-11-28 06:00,32.883,25.091,37.106,11.21
2020-11-28 07:00,32.843,25.065,37.041,11.18
2020-11-28 08:00,32.856,25.078,37.043,11.17
2020-11-28 09:00,32.977,25.176,37.139,11.14
2020-11-28 10:00,32.977,25.175,37.146,11.14
2020-11-28 11:00,32.965,25.162,37.156,11.17
2020-11-28 12:00,33.005,25.176,37.281,11.26
2020-11-28 13:00,32.990,25.150,37.342,11.34
2020-11-28 14:00,32.992,25.162,37.289,11.28
2020-11-28 15:00,32.988,25.146,37.348,11.35
2020-11-28 16:00,32.998,25.148,37.386,11.39
2020-11-28 17:00,32.967,25.104,37.456,11.50
2020-11-28 18:00,33.011,25.130,37.542,11.54
2020-11-28 19:00,33.026,25.120,37.665,11.66
2020-11-28 20:00,33.045,25.125,37.732,11.71
2020-11-28 21:00,33.060,25.147,37.696,11.66
2020-11-28 22:00,33.060,25.137,37.747,11.71
2020-11-28 23:00,33.029,25.138,37.590,11.57
2020-11-29 00:00,32.987,25.101,37.570,11.60
2020-11-29 01:00,32.616,24.907,36.713,11.07
2020-11-29 02:00,32.422,24.853,36.025,10.52
2020-11-29 03:00,32.451,24.878,36.036,10.50
2020-11-29 04:00,32.500,24.907,36.139,10.56
2020-11-29 05:00,32.441,24.855,36.112,10.59
2020-11-29 06:00,32.437,24.810,36.319,10.83
2020-11-29 07:00,32.658,24.946,36.724,11.03
2020-11-29 08:00,32.905,25.068,37.329,11.43
2020-11-29 09:00,32.975,25.129,37.371,11.39
2020-11-29 10:00,32.872,25.056,37.230,11.35
2020-11-29 11:00,32.147,24.642,35.737,10.50
2020-11-29 12:00,32.298,24.781,35.772,10.37
2020-11-29 13:00,32.334,24.806,35.826,10.39
2020-11-29 14:00,32.334,24.800,35.854,10.42
2020-11-29 15:00,32.359,24.814,35.905,10.45
2020-11-29 16:00,32.434,24.843,36.138,10.63
2020-11-29 17:00,32.597,24.925,36.532,10.89
2020-11-29 18:00,32.389,24.811,36.072,10.61
2020-11-29 19:00,32.280,24.756,35.813,10.44
2020-11-29 20:00,32.295,24.752,35.906,10.53
2020-11-29 21:00,32.286,24.751,35.871,10.50
2020-11-29 22:00,32.304,24.760,35.910,10.52
2020-11-29 23:00,32.408,24.793,36.268,10.81
2020-11-30 00:00,32.320,24.793,35.823,10.40
2020-11-30 01:00,32.292,24.774,35.779,10.39
2020-11-30 02:00,32.235,24.730,35.717,10.38